Regional Weather Roundup
Issued by NWS

Home | Current Version | Previous Version | Graphics & Text | Print | Product List | Glossary On
Versions: 1 2 3 4 5 6 7 8 9 10 11 12 13 14 15 16 17 18 19 20 21 22 23 24 25 26 27 28 29 30 31 32 33 34 35 36 37 38 39 40 41 42 43 44 45 46 47 48 49 50
000
ASUS43 KDMX 250501
RWRIA

WEATHER ROUNDUP FOR IOWA
NATIONAL WEATHER SERVICE DES MOINES IA
1200 AM CDT SAT MAR 25 2017

NOTE: "FAIR" INDICATES FEW OR NO CLOUDS BELOW 12,000 FEET WITH NO
SIGNIFICANT WEATHER AND/OR OBSTRUCTIONS TO VISIBILITY.

* - THESE STATIONS ARE NOT NWS STATIONS...THUS NOT UNDER NWS
QUALITY CONTROL.  THEY ALSO DO NOT REPORT WEATHER SUCH
AS PRECIPITATION OR FOG.

IAZ001>003-012>014-020>022-031>034-043>046-250600-
   NORTHWEST IOWA

CITY           SKY/WX    TMP DP  RH WIND       PRES   REMARKS
CARROLL *      CLOUDY    41  41 100 NE17      30.02F FOG
CHEROKEE *     LGT RAIN  39  38  97 NE14G23   30.05F WCI  31
LE MARS *      CLOUDY    39  37  93 NE10G20   30.07F FOG     WCI  32
ORANGE CITY *  CLOUDY    37  37 100 NE10G17   30.06F FOG     WCI  30
SHELDON *      CLOUDY    37  37 100 NE13      30.07F FOG     WCI  29
SIOUX CITY     LGT RAIN  40  39  97 NE14      30.06F WCI  32
SPENCER        CLOUDY    39  37  92 NE15      30.09S WCI  31
STORM LAKE *   CLOUDY    39  39 100 NE25G31   30.02F FOG     WCI  28
$$

IAZ055>058-069>071-079>083-090>094-250600-
   SOUTHWEST IOWA

CITY           SKY/WX    TMP DP  RH WIND       PRES   REMARKS
ATLANTIC *     LGT RAIN  41  41 100 NE17      29.97R
AUDUBON *      DRIZZLE   39  37  93 N12G21    30.00S WCI  32
CLARINDA *     CLOUDY    45  45 100 NE14G22   29.94F FOG
COUNCIL BLFS * CLOUDY    41  41 100 N15G22    29.97S
CRESTON *      MIX PCPN  43  43 100 NE18G26   29.93S
HARLAN  *      LGT RAIN  41  41 100 NE14G24   30.01F
LAMONI         CLOUDY    46  45  96 NE15G24   29.89F
RED OAK *      LGT RAIN  43  43 100 NE16      29.94F
SHENANDOAH *   LGT RAIN  43  43 100 N16       29.93F
$$

IAZ047>049-059>061-072>074-084-250600-
   CENTRAL IOWA

CITY           SKY/WX    TMP DP  RH WIND       PRES   REMARKS
AMES           CLOUDY    42  41  96 NE14      29.99F
ANKENY *       CLOUDY    43  41  93 NE12      29.98F
BOONE *        CLOUDY    41  41 100 NE22G29   29.97F
CHARITON *     CLOUDY    45  45 100 NE17      29.92F
DES MOINES     CLOUDY    44  42  93 NE14      29.97S
GRINNELL*      CLOUDY    42  41  95 NE16      29.99F FOG
MARSHALLTOWN   CLOUDY    42  40  92 NE17      29.99F
NEWTON *       CLOUDY    43  41  93 NE14G22   29.96F FOG
PELLA *        CLOUDY    44  43  98 NE15      29.96F FOG
PERRY *        DRIZZLE   42  40  93 NE13      29.99F
$$

IAZ004>006-015-016-023>025-035-036-250600-
   NORTH CENTRAL IOWA

CITY           SKY/WX    TMP DP  RH WIND       PRES   REMARKS
ALGONA *       LGT RAIN  39  39 100 NE15      30.08S WCI  31
CLARION *      CLOUDY    39  39 100 NE17G25   30.04F WCI  30
ESTHERVILLE    CLOUDY    37  37 100 NE13      30.11R WCI  29
FORT DODGE *   CLOUDY    39  36  87 NE14G20   30.04F WCI  31
MASON CITY     CLOUDY    39  37  92 NE15      30.09R WCI  31
FOREST CITY *  CLOUDY    39  37  93 NE9G16    30.09R WCI  33
WEBSTER CITY * MIX PCPN  41  39  93 NE16G23   30.00F
IOWA FALLS *   CLOUDY    41  39  93 NE16G24   30.03F
$$

IAZ007>011-017>019-026>030-037>042-050>054-066-250600-
   NORTHEAST IOWA

CITY           SKY/WX    TMP DP  RH WIND       PRES   REMARKS
CEDAR RAPIDS   LGT RAIN  45  45 100 NE14      29.99F FOG
CHARLES CITY * MIX PCPN  39  39 100 NE15G21   30.08R WCI  31
CLINTON *      LGT RAIN  47  45  93 NE20      30.02S FOG
DECORAH *      CLOUDY    39  37  93 NE13      30.08R WCI  32
DUBUQUE        CLOUDY    40  39  97 NE16      30.04S FOG     WCI  31
MONTICELLO *   CLOUDY    43  41  93 NE8G16    30.04R FOG
OELWEIN *      CLOUDY    39  39 100 NE18G25   30.03S WCI  30
WATERLOO       CLOUDY    41  38  89 NE13      30.04R
$$

IAZ064-065-067-068-078-250600-
   EAST CENTRAL IOWA

CITY           SKY/WX    TMP DP  RH WIND       PRES   REMARKS
DAVENPORT      CLOUDY    50  49  96 NE18      29.99F FOG
IOWA CITY      LGT RAIN  52  49  89 NE14      29.99S
MUSCATINE *    DRIZZLE   55  54  94 E7        29.98R
QUAD CITIES    CLOUDY    56  54  93 NE9       29.98F FOG
$$

IAZ062-063-075>077-085>089-095>099-250600-
   SOUTHEAST IOWA

CITY           SKY/WX    TMP DP  RH WIND       PRES   REMARKS
BURLINGTON     RAIN      55  55 100 NE8       29.94S FOG
FAIRFIELD *    CLOUDY    54  54 100 NE12      29.94S FOG
FORT MADISON * LGT RAIN  55  54  94 E9        29.95F
KEOKUK *       CLOUDY    55  55 100 E13       29.93S FOG
OSKALOOSA *    CLOUDY    46  46  98 NE16      29.95R FOG
CENTERVILLE *  CLOUDY    50  50 100 N7        29.93R FOG
OTTUMWA        CLOUDY    50  50 100 NE14      29.94R FOG
WASHINGTON *   CLOUDY    54  54 100 E13       29.97R FOG
$$

ABBREVIATIONS USED IN REMARKS
   TC - TEMPERATURES IN CELSIUS
  WCI - WIND CHILL INDEX
   HX - HEAT INDEX
  VSB - VISIBILITY
$$




USA.gov is the U.S. government's official web portal to all federal, state and local government web resources and services.